San Bernardino, CA

9:29 PM PST on December 08, 2019 (GMT -0800)
San Bernardino International

Weather History for KSBD - May, 2019

Change the Weather History Date:

Monday, May 13, 2019

  Actual Average Record
Temperature  
Mean Temperature 70 °F -  
Max Temperature 80 °F 81 °F 100 °F (2013)
Min Temperature 59 °F 51 °F 50 °F (2018)
Cooling Degree Days 4    
Growing Degree Days 20 (Base 50)    
Moisture  
Dew Point 55 °F    
Average Humidity 71    
Maximum Humidity 82    
Minimum Humidity 37    
Precipitation  
Precipitation 0.00 in - - ()
Sea Level Pressure  
Sea Level Pressure 29.99 in    
Wind  
Wind Speed 4 mph (WSW)    
Max Wind Speed 12 mph    
Max Gust Speed -    
Visibility 7 miles    
Events      
Averages and records for this station are not official NWS values.
T = Trace of Precipitation, MM = Missing Value Source: NWS Daily Summary

Daily Weather History Graph

Daily Weather History Graph

Search for Another Location

Airport or City:

Astronomy

May. 13, 2019 Rise Set
Actual Time 5:48 AM PDT 7:42 PM PDT
Civil Twilight 5:21 AM PDT 8:09 PM PDT
Nautical Twilight 4:48 AM PDT 8:43 PM PDT
Astronomical Twilight 4:12 AM PDT 9:18 PM PDT
Moon 2:18 PM PDT (5/13) 2:49 AM PDT (5/13)
Length of Visible Light 14h 48m
Length of Day
13h 53m
Waxing Gibbous, 70% of the Moon is Illuminated
May 13
Waxing Gibbous
May 18
Full
May 26
Last Quarter
Jun 3
New
Jun 9
First Quarter

Hourly Weather History & Observations

Time (PDT) Temp. Heat Index Dew Point Humidity Pressure Visibility Wind Dir Wind Speed Gust Speed Precip Events Conditions
12:00 AM 62.8 °F - 54.5 °F 74% 30.00 in 10.0 mi WSW 4.6 mph - N/A   Clear
12:20 AM 62.6 °F - 54.5 °F 75% 30.00 in 10.0 mi WSW 4.6 mph - N/A   Clear
12:40 AM 62.8 °F - 54.5 °F 74% 30.00 in 10.0 mi WSW 4.6 mph - N/A   Clear
1:00 AM 62.1 °F - 54.5 °F 76% 30.00 in 10.0 mi WSW 3.5 mph - N/A   Clear
1:20 AM 61.3 °F - 54.1 °F 77% 30.00 in 10.0 mi West 3.5 mph - N/A   Clear
1:40 AM 61.3 °F - 54.1 °F 77% 29.99 in 10.0 mi West 3.5 mph - N/A   Clear
2:00 AM 60.3 °F - 54.0 °F 80% 29.98 in 10.0 mi West 3.5 mph - N/A   Clear
2:20 AM 60.1 °F - 54.1 °F 81% 29.98 in 10.0 mi WSW 4.6 mph - N/A   Clear
2:40 AM 59.9 °F - 54.1 °F 81% 29.98 in 10.0 mi WSW 4.6 mph - N/A   Clear
3:00 AM 59.4 °F - 53.8 °F 82% 29.99 in 10.0 mi WSW 3.5 mph - N/A   Mostly Cloudy
3:20 AM 60.1 °F - 54.7 °F 82% 29.99 in 10.0 mi West 3.5 mph - N/A   Overcast
3:40 AM 60.3 °F - 54.9 °F 82% 30.00 in 10.0 mi West 4.6 mph - N/A   Overcast
4:00 AM 60.4 °F - 55.0 °F 82% 30.00 in 7.0 mi West 4.6 mph - N/A   Overcast
4:20 AM 60.4 °F - 55.0 °F 82% 30.00 in 10.0 mi West 4.6 mph - N/A   Overcast
4:40 AM 60.4 °F - 54.9 °F 82% 30.00 in 7.0 mi WSW 3.5 mph - N/A   Overcast
5:00 AM 60.8 °F - 55.0 °F 81% 30.00 in 7.0 mi Calm Calm - N/A   Overcast
5:20 AM 60.8 °F - 55.4 °F 82% 29.99 in 7.0 mi Calm Calm - N/A   Overcast
5:40 AM 60.8 °F - 55.4 °F 82% 29.99 in 5.0 mi Calm Calm - N/A   Haze
7:00 AM 60.8 °F - 55.4 °F 82% 30.02 in 2.0 mi Calm Calm - N/A   Overcast
7:48 AM 60.8 °F - 55.4 °F 82% 30.03 in 2.0 mi Calm Calm - N/A   Overcast
8:45 AM 60.8 °F - 55.4 °F 82% 30.03 in 2.0 mi Calm Calm - N/A   Overcast
9:46 AM 62.6 °F - 55.4 °F 77% 30.03 in 3.0 mi Calm Calm - N/A   Haze
10:50 AM 66.2 °F - 55.4 °F 68% 30.02 in 3.0 mi SSW 4.6 mph - N/A   Haze
11:50 AM 71.6 °F - 55.4 °F 57% 30.02 in 3.0 mi West 5.8 mph - N/A   Haze
12:50 PM 75.2 °F - 55.4 °F 50% 30.00 in 5.0 mi WSW 5.8 mph - N/A   Haze
2:50 PM 80.6 °F - 51.8 °F 37% 29.97 in 4.0 mi WSW 10.4 mph - N/A   Haze
3:50 PM 80.6 °F - 51.8 °F 37% 29.96 in 4.0 mi SW 9.2 mph - N/A   Haze
4:50 PM 80.6 °F 80.3 °F 53.6 °F 39% 29.94 in 4.0 mi WSW 8.1 mph - N/A   Haze
5:50 PM 77.0 °F - 55.4 °F 47% 29.94 in 5.0 mi WSW 11.5 mph - N/A   Haze
6:50 PM 75.2 °F - 55.4 °F 50% 29.95 in 4.0 mi SW 10.4 mph - N/A   Haze
7:50 PM 71.6 °F - 55.4 °F 57% 29.96 in 4.0 mi WSW 6.9 mph - N/A   Haze
8:50 PM 68.0 °F - 55.4 °F 64% 29.98 in 5.0 mi SW 5.8 mph - N/A   Haze
9:40 PM 66.9 °F - 55.2 °F 66% 29.99 in 10.0 mi WSW 4.6 mph - N/A   Clear
10:00 PM 65.7 °F - 54.9 °F 68% 30.00 in 10.0 mi WSW 5.8 mph - N/A   Clear
10:20 PM 64.6 °F - 54.7 °F 70% 30.01 in 10.0 mi West 5.8 mph - N/A   Clear
10:40 PM 64.2 °F - 54.7 °F 71% 30.02 in 10.0 mi WSW 8.1 mph - N/A   Clear
11:00 PM 63.7 °F - 54.7 °F 72% 30.02 in 10.0 mi WSW 6.9 mph - N/A   Clear
11:20 PM 62.8 °F - 54.7 °F 75% 30.02 in 10.0 mi WSW 4.6 mph - N/A   Clear